Franklin, NC

12:41 AM EST on February 12, 2016 (GMT -0500)
Franklin

Weather History for K1A5 - May, 2012

Change the Weather History Date:

Wednesday, May 16, 2012

  Actual Average (KAVL) Record (KAVL)
Temperature  
Mean Temperature 65 °F 63 °F  
Max Temperature 77 °F 75 °F 88 °F (1952)
Min Temperature 53 °F 51 °F 36 °F (1997)
Degree Days  
Heating Degree Days 0 3  
Month to date heating degree days 75  
Since 1 July heating degree days 4147  
Cooling Degree Days 0 2  
Month to date cooling degree days 16  
Year to date cooling degree days 24  
Growing Degree Days 15 (Base 50)    
Moisture  
Dew Point 53 °F    
Average Humidity 77    
Maximum Humidity 100    
Minimum Humidity 32    
Precipitation  
Precipitation 0.01 in 0.12 in 0.79 in (1913)
Month to date precipitation 1.83  
Year to date precipitation 16.42  
Snow  
Snow 0.00 in 0.00 in 0.00 in ()
Month to date snowfall 0.0  
Since 1 July snowfall 9.9  
Snow Depth -    
Sea Level Pressure  
Sea Level Pressure 30.03 in    
Wind  
Wind Speed 1 mph (WSW)    
Max Wind Speed 8 mph    
Max Gust Speed -    
Visibility 8 miles    
Events Fog    
T = Trace of Precipitation, MM = Missing Value Source: NWS Daily Summary

Daily Weather History Graph

Daily Weather History Graph

Search for Another Location

Airport or City:

Trip Planner

Search our weather history database for the weather conditions in past years. The results will help you decide how hot, cold, wet, or windy it might be!

Date:

Astronomy

May. 16, 2012 Rise Set
Actual Time 6:28 AM EDT 8:32 PM EDT
Civil Twilight 6:00 AM EDT 9:00 PM EDT
Nautical Twilight 5:25 AM EDT 9:34 PM EDT
Astronomical Twilight 4:48 AM EDT 10:12 PM EDT
Moon 3:49 AM EDT (5/16) 4:53 PM EDT (5/16)
Length of Visible Light 15h 00m
Length of Day
14h 03m
Waning Crescent, 16% of the Moon is Illuminated
May 16
Waning Crescent
May 20
New
May 28
First Quarter
Jun 4
Full
Jun 11
Last Quarter

Hourly Weather History & Observations

Time (EDT) Temp. Dew Point Humidity Pressure Visibility Wind Dir Wind Speed Gust Speed Precip Events Conditions
12:15 AM 53.6 °F 53.6 °F 100% 30.05 in 10.0 mi Calm Calm - N/A   Mostly Cloudy
12:35 AM 55.4 °F 53.6 °F 94% 30.04 in 0.5 mi Calm Calm - N/A Fog Fog
12:55 AM 55.4 °F 53.6 °F 94% 30.04 in 0.5 mi Calm Calm - N/A Fog Fog
1:15 AM 55.4 °F 53.6 °F 94% 30.05 in 0.2 mi Calm Calm - N/A Fog Fog
1:55 AM 55.4 °F 53.6 °F 94% 30.04 in 0.5 mi West 3.5 mph - N/A Fog Fog
2:15 AM 55.4 °F 53.6 °F 94% 30.04 in 0.8 mi West 3.5 mph - N/A   Overcast
2:35 AM 55.4 °F 53.6 °F 94% 30.03 in 1.2 mi Calm Calm - N/A   Overcast
3:15 AM 55.4 °F 53.6 °F 94% 30.03 in 4.0 mi Calm Calm - N/A   Overcast
3:35 AM 55.4 °F 53.6 °F 94% 30.03 in 3.0 mi Calm Calm - N/A   Overcast
3:55 AM 55.4 °F 53.6 °F 94% 30.03 in 3.0 mi Calm Calm - N/A   Overcast
4:15 AM 55.4 °F 53.6 °F 94% 30.03 in 1.0 mi Calm Calm - N/A   Overcast
4:35 AM 55.4 °F 53.6 °F 94% 30.03 in 1.2 mi Calm Calm - N/A   Overcast
4:55 AM 55.4 °F 53.6 °F 94% 30.03 in 1.0 mi Calm Calm - N/A   Overcast
5:15 AM 55.4 °F 53.6 °F 94% 30.03 in 2.0 mi Calm Calm - N/A   Overcast
5:35 AM 55.4 °F 53.6 °F 94% 30.03 in 4.0 mi Calm Calm - N/A   Overcast
5:55 AM 55.4 °F 53.6 °F 94% 30.04 in 2.0 mi Calm Calm - N/A   Overcast
6:15 AM 55.4 °F 53.6 °F 94% 30.04 in 5.0 mi WSW 3.5 mph - N/A   Overcast
6:35 AM 55.4 °F 53.6 °F 94% 30.05 in 7.0 mi Calm Calm - N/A   Overcast
6:55 AM 55.4 °F 53.6 °F 94% 30.06 in 5.0 mi Calm Calm - 0.01 in   Overcast
7:15 AM 55.4 °F 53.6 °F 94% 30.06 in 3.0 mi Calm Calm - N/A   Overcast
7:35 AM 55.4 °F 53.6 °F 94% 30.07 in 10.0 mi Calm Calm - N/A   Overcast
7:55 AM 55.4 °F 53.6 °F 94% 30.07 in 7.0 mi Calm Calm - N/A   Overcast
8:15 AM 55.4 °F 53.6 °F 94% 30.07 in 7.0 mi Calm Calm - N/A   Overcast
8:35 AM 55.4 °F 53.6 °F 94% 30.07 in 10.0 mi Calm Calm - N/A   Overcast
8:55 AM 55.4 °F 53.6 °F 94% 30.07 in 7.0 mi Calm Calm - N/A   Overcast
9:15 AM 57.2 °F 55.4 °F 94% 30.07 in 10.0 mi Calm Calm - N/A   Overcast
9:35 AM 57.2 °F 55.4 °F 94% 30.07 in 10.0 mi Calm Calm - N/A   Overcast
9:55 AM 59.0 °F 55.4 °F 88% 30.07 in 10.0 mi Calm Calm - N/A   Overcast
10:15 AM 59.0 °F 55.4 °F 88% 30.07 in 10.0 mi Calm Calm - N/A   Overcast
10:35 AM 59.0 °F 55.4 °F 88% 30.07 in 10.0 mi WSW 3.5 mph - N/A   Overcast
10:55 AM 60.8 °F 55.4 °F 82% 30.08 in 10.0 mi WSW 3.5 mph - N/A   Overcast
11:15 AM 60.8 °F 55.4 °F 82% 30.08 in 10.0 mi West 3.5 mph - N/A   Overcast
11:35 AM 62.6 °F 55.4 °F 77% 30.08 in 10.0 mi Calm Calm - N/A   Overcast
11:55 AM 62.6 °F 55.4 °F 77% 30.07 in 10.0 mi Calm Calm - N/A   Scattered Clouds
12:15 PM 66.2 °F 57.2 °F 73% 30.06 in 10.0 mi Calm Calm - N/A   Clear
12:35 PM 68.0 °F 57.2 °F 68% 30.06 in 10.0 mi Calm Calm - N/A   Clear
12:55 PM 68.0 °F 55.4 °F 64% 30.05 in 10.0 mi Calm Calm - N/A   Clear
1:15 PM 69.8 °F 55.4 °F 60% 30.04 in 10.0 mi WSW 3.5 mph - N/A   Clear
1:35 PM 71.6 °F 53.6 °F 53% 30.03 in 10.0 mi SW 3.5 mph - N/A   Clear
1:55 PM 71.6 °F 51.8 °F 50% 30.02 in 10.0 mi WSW 5.8 mph - N/A   Clear
2:15 PM 73.4 °F 53.6 °F 50% 30.02 in 10.0 mi WSW 3.5 mph - N/A   Clear
2:55 PM 75.2 °F 51.8 °F 44% 30.00 in 10.0 mi Calm Calm - N/A   Clear
3:15 PM 77.0 °F 48.2 °F 36% 29.99 in 10.0 mi WSW 4.6 mph - N/A   Clear
3:35 PM 77.0 °F 44.6 °F 32% 29.99 in 10.0 mi WSW 5.8 mph - N/A   Clear
3:55 PM 77.0 °F 46.4 °F 34% 29.98 in 10.0 mi Calm Calm - N/A   Clear
4:15 PM 75.2 °F 46.4 °F 36% 29.97 in 10.0 mi WSW 5.8 mph - N/A   Clear
4:55 PM 77.0 °F 50.0 °F 39% 29.95 in 10.0 mi WSW 3.5 mph - N/A   Clear
5:15 PM 77.0 °F 48.2 °F 36% 29.95 in 10.0 mi WSW 5.8 mph - N/A   Clear
5:35 PM 75.2 °F 48.2 °F 38% 29.96 in 10.0 mi WSW 6.9 mph - N/A   Clear
5:55 PM 73.4 °F 50.0 °F 44% 29.96 in 10.0 mi SW 5.8 mph - N/A   Clear
6:35 PM 71.6 °F 46.4 °F 41% 29.96 in 10.0 mi WSW 8.1 mph - N/A   Clear
6:55 PM 71.6 °F 48.2 °F 43% 29.97 in 10.0 mi WSW 5.8 mph - N/A   Clear
7:35 PM 71.6 °F 48.2 °F 43% 29.97 in 10.0 mi Calm Calm - N/A   Clear
7:55 PM 69.8 °F 51.8 °F 53% 29.98 in 10.0 mi Calm Calm - N/A   Mostly Cloudy
8:15 PM 66.2 °F 55.4 °F 68% 29.99 in 10.0 mi Calm Calm - N/A   Mostly Cloudy
8:35 PM 64.4 °F 55.4 °F 73% 30.00 in 10.0 mi Calm Calm - N/A   Mostly Cloudy
8:55 PM 62.6 °F 55.4 °F 77% 30.00 in 10.0 mi WSW 3.5 mph - N/A   Scattered Clouds
9:15 PM 62.6 °F 55.4 °F 77% 30.01 in 10.0 mi Calm Calm - N/A   Scattered Clouds
9:35 PM 59.0 °F 53.6 °F 82% 30.01 in 10.0 mi WSW 3.5 mph - N/A   Clear
10:15 PM 59.0 °F 53.6 °F 82% 30.02 in 10.0 mi Calm Calm - N/A   Mostly Cloudy
10:35 PM 57.2 °F 53.6 °F 88% 30.04 in 10.0 mi Calm Calm - N/A   Scattered Clouds
10:55 PM 55.4 °F 53.6 °F 94% 30.04 in 10.0 mi Calm Calm - N/A   Clear
11:15 PM 55.4 °F 53.6 °F 94% 30.04 in 10.0 mi Calm Calm - N/A   Clear
11:35 PM 55.4 °F 53.6 °F 94% 30.04 in 7.0 mi Calm Calm - N/A   Clear
11:55 PM 55.4 °F 53.6 °F 94% 30.04 in 7.0 mi Calm Calm - N/A   Clear